Zhongxing 3B

operational
NORAD ID: 64062 Int'l Des: 2025-106 Owner: ZLZB Country: CN
HEOCIRCULARGSO

关于 Zhongxing 3B

正在加载描述...

实时位置

正在加载3D地球...

即将过境

高度历史

Altitude vs Time

uPlot chart will show altitude changes over time

两行轨道根数

1 64062U 25106A 25340.88790810 -.00000039 00000-0 00000-0 0 9990
2 64062 0.0259 64.4652 0009337 172.7246 325.6994 1.00271597 2130
Epoch: Dec 6, 2025 • Age: 17 hours

当前状态

高度 35818.1 km
速度 3.07 km/s
星下点 0.03°N, 167.26°E
发射日期 May 20, 2025
运行时间 0.5 years
类型 other

技术详情

分类 Payload
质量 5000.00 kg
干质量 2500.00 kg
总质量 5000.00 kg
长度 5.00 m
直径 2.50 m
跨度 30.00 m
形状 Box + 2 Pan
制造商 SISE
平台类型 FY-4
阶段状态 In Orbit
所有者/国家 ZLZB/CN

大型星座

Loading constellations...